Weather in Dyrestuy

Russia / Republic of Buryatia     50°39′14″N   106°03′55″E
temp.,
°C
wind,
m/s
gust,
m/s
humid.,
%
clouds,
%
prec.,
mm/h
press.,
hPa
HPBL,
m
8 march, mon
mon823:00−9wsw129166 0.0 101821
02:00−9w119183 0.0 101921
05:00−10wsw128054 0.0 101921
08:00−10wsw117428 0.0 102321
11:00−3sw227369 0.0 1022126
14:00−1ssw228135 0.0 1023182
17:00−1ene23870 0.0 1023164
20:00−7ne22880 0.0 102721
9 march, tue
tue923:00−10nne12910 0.0 102621
02:00−11sw11920 0.0 102521
05:00−12ssw22940 0.0 102321
08:00−12sw229815 0.0 102221
11:00−6ssw339168 0.0 1018191
14:00−3sw228770 0.0 1016260
17:00−2nne229089 0.0 1018107
20:00−6wnw118894 0.0 102321
10 march, wed
wed1023:00−7nnw128120 0.0 102621
02:00−8nw117236 0.0 102821
05:00−9wsw117491 0.0 102921
08:00−9sse007584 0.0 103021
11:00−4ene11730 0.0 1028179
14:00−2sse11830 0.0 1025347
17:00−2ssw12880 0.0 1023155
20:00−7sw11890 0.0 102421
11 march, thu
thu1123:00−8wsw11910 0.0 102521
02:00−10wsw11930 0.0 102521
05:00−11wsw119573 0.0 102521
08:00−11sw129539 0.0 102621
11:00−5ssw22880 0.0 1024188
14:00−3ssw23860 0.0 1022236
17:00−2sw22890 0.0 1021135
20:00−6sw22870 0.0 102321
12 march, fri
fri1223:00−7sw23870 0.0 102322
02:00−8sw23830 0.0 102222
05:00−9sw33810 0.0 102223
08:00−9sw23800 0.0 102124
11:00−4sw237568 0.0 1019137
14:00−1ssw127584 0.0 1018135
17:00−1ne1183100 0.0 101930
20:00−6n118283 0.0 102221